This is the latest recevied weather packets stored in our database for station/object K1FSY-9. If no packets are shown the sender has not sent any weather packets the latest 10 day(s).
| Time | Temp. | Humidity | Pressure | Rain* | Wind** | Luminosity | Snow |
|---|---|---|---|---|---|---|---|
| 1777603324 | 7.22° C | 78% | 1007.1 hPa | 11.94 mm | - | - | - |
| 1777599720 | 7.78° C | 83% | 1006.7 hPa | 11.94 mm | - | - | - |
| 1777597915 | 7.78° C | 93% | 1006 hPa | 11.94 mm | - | - | - |
| 1777596113 | 8.89° C | 91% | 1006 hPa | 11.94 mm | - | - | - |
| 1777594313 | 9.44° C | 91% | 1005.4 hPa | 11.94 mm | - | - | - |
| 1777592512 | 10° C | 92% | 1005.4 hPa | 11.94 mm | - | - | - |
| 1777590709 | 10.56° C | 92% | 1005.4 hPa | 11.94 mm | - | - | - |
| 1777588908 | 10.56° C | 92% | 1004.7 hPa | 11.68 mm | - | - | - |
| 1777587104 | 11.11° C | 91% | 1004.4 hPa | 11.68 mm | - | - | - |
| 1777585299 | 12.22° C | 83% | 1004 hPa | 10.67 mm | - | - | - |
| 1777579891 | 11.67° C | 85% | 1003.7 hPa | 10.67 mm | - | - | - |
| 1777578093 | 11.67° C | 84% | 1003.3 hPa | 10.67 mm | - | - | - |
| 1777576285 | 12.22° C | 83% | 1003.7 hPa | 10.67 mm | - | - | - |
| 1777572686 | 12.22° C | 85% | 1003.3 hPa | 10.67 mm | - | - | - |
| 1777570878 | 11.67° C | 87% | 1003.7 hPa | 10.67 mm | - | - | - |
| 1777569073 | 11.67° C | 88% | 1003.7 hPa | 10.67 mm | - | - | - |
| 1777567269 | 11.11° C | 93% | 1004 hPa | 10.67 mm | - | - | - |
| 1777565464 | 10° C | 96% | 1005 hPa | 10.67 mm | - | - | - |
| 1777563664 | 8.89° C | 96% | 1005 hPa | 10.41 mm | - | - | - |
| 1777560063 | 8.33° C | 96% | 1005.4 hPa | 10.41 mm | - | - | - |
| 1777558256 | 8.33° C | 96% | 1005 hPa | 10.41 mm | - | - | - |
| 1777552850 | 8.33° C | 96% | 1005.4 hPa | 10.41 mm | - | - | - |
| 1777551048 | 7.78° C | 95% | 1005.4 hPa | 10.41 mm | - | - | - |
| 1777549240 | 7.78° C | 96% | 1005.7 hPa | 10.41 mm | - | - | - |
| 1777547439 | 7.78° C | 95% | 1005.7 hPa | 10.16 mm | - | - | - |
* Rain latest 24 hours (hover to see other rain measurements)
** Current wind speed in m/s (hover to see current wind gust speed)